"Pseudo-MPEC" for CAR9UZ2

Created 2024 Sep 8 6:22:05 UT using Find_Orb

Click here for an explanation of pseudo-MPECs

 
 Astrometry: 
     CAR9UZ2 1C2024 09 04.41350200 37 17.598-12 21 07.42FixDup   21.22GVNEOCPG96
     CAR9UZ2*1C2024 09 04.41350200 37 17.598-12 21 07.42Duplicate21.22GVNEOCPG96
     CAR9UZ2 1C2024 09 04.41864100 37 19.837-12 21 11.59   ~94Cb 20.96GVNEOCPG96
     CAR9UZ2 1C2024 09 04.42379500 37 22.048-12 21 16.42   ~94Cb 21.47GVNEOCPG96
     CAR9UZ2 $C2024 09 05.18571700 43 17.290-12 30 45.15   ~96Mq 20.9 GVNEOCPJ04
     CAR9UZ2 $C2024 09 05.19912200 43 23.186-12 30 54.53   ~96Mq 20.9 GVNEOCPJ04
     CAR9UZ2  C2024 09 07.35133801 00 33.760-12 55 34.41   ~979M 21.0 GVNEOCPH01
     CAR9UZ2  C2024 09 07.35569701 00 35.727-12 55 37.22   ~979M 20.9 GVNEOCPH01
     CAR9UZ2 KC2024 09 07.36489501 00 40.194-12 55 41.48   ~979M 20.94GVNEOCPI52
     CAR9UZ2 KC2024 09 07.36703901 00 41.144-12 55 42.82   ~979M 20.90GVNEOCPI52
     CAR9UZ2  C2024 09 07.36733501 00 40.971-12 55 44.91   ~979M 20.9 GVNEOCPH01
     CAR9UZ2 KC2024 09 07.36918201 00 42.124-12 55 43.97   ~979M 21.22GVNEOCPI52
     CAR9UZ2 KC2024 09 07.37132401 00 43.060-12 55 44.83   ~979M 20.89GVNEOCPI52
     CAR9UZ2  C2024 09 07.37276401 00 43.426-12 55 48.05   ~979M 20.6 GVNEOCPH01
     CAR9UZ2 1C2024 09 08.01742 01 05 56.49 -13 02 32.0    ~9817 21.6 VXNEOCP033
     CAR9UZ2 1C2024 09 08.01959 01 05 57.49 -13 02 33.7    ~9817 21.4 VXNEOCP033
     CAR9UZ2 1C2024 09 08.02202 01 05 58.63 -13 02 35.3    ~9817 21.6 VXNEOCP033

Station data:
(033) Karl Schwarzschild Observatory, Tautenburg  (N50.980139 E11.711240)
   Germany.  Observer B. Stecklum. 1.34-m f/3 Schmidt + CCD.
(G96) Mt. Lemmon Survey  (N32.442729 W110.788720)  US/Arizona.  Observer E.
   J. Christensen. 1.5-m reflector + 10K CCD.
(H01) Magdalena Ridge Observatory, Socorro  (N33.984833 W107.189333)  US/New
   Mexico.  Observers W. H. Ryan, E. V. Ryan. Measurer W. H. Ryan. 2.4-m
   f/8.9 reflector + CCD.
(I52) Steward Observatory, Mt. Lemmon Station  (N32.442570 W110.788920)
   US/Arizona.  Observers T. A. Pruyne, B. M. Africano, E. J. Christensen, G.
   A. Farneth, D. C. Fuls, A. R. Gibbs, A. D. Grauer, H. Gröller, J. A.
   Johnson, R. A. Kowalski, S. M. Larson, G. J. Leonard, D. Rankin, R. L.
   Seaman, F. C. Shelly, K. W. Wierzchoś. 1.0-m prime focus + CCD.
(J04) ESA Optical Ground Station, Tenerife  (N28.300921 W16.511830)  Canary
   Islands (Spain).  Observer F. Ocaña. Measurers M. Micheli, D. Koschny, E.
   Schwab, M. Busch, A. Knöfel. 1.0-m f/4.4 reflector + CCD.

Orbital elements:  CAR9UZ2
   Perihelion 2024 Sep 26.20997 +/- 0.0522 TT =  5:02:21 (JD 2460579.70997)
Epoch 2024 Sep  8.0 TT = JDT 2460561.5   Earth MOID: 0.0870      AutoNEOCP
M 352.87482167 +/- 0.15             (J2000 ecliptic)
n   0.39127897 +/- 0.00731          Peri.  221.14399 +/- 0.040
a   1.85130669 +/- 0.0231           Node   145.37939 +/- 0.024
e   0.4184988 +/- 0.00667           Incl.    4.33349 +/- 0.054
P   2.519/920.042d         H 24.94  G  0.15   U  9.4
q 1.07653697 +/- 0.00105    Q 2.62607641 +/- 0.0451
From 17 observations 2024 Sept. 4-8; mean residual 0".27
Residuals in arcseconds: 
240904 G96  .04+  .52+    240907 H01  .33+  .03-    240907 I52  .50-  .51+    
240904 G96  .04+  .52+    240907 H01  .28+  .05-    240907 H01  .08+  .08-    
240904 G96  .18+  .20+    240907 I52  .04+  .23-    240908 033  .05-  .40+    
240904 G96  .21-  .79-    240907 I52  .23-  .20-    240908 033  .09-  .00     
240905 J04  .10+  .12+    240907 H01  .05+  .35-    240908 033  .15+  .14-    
240905 J04  .11-  .02+    240907 I52  .05-  .01+    

Ephemerides (geocentric):
Date (UTC) HH   RA             Dec           delta  r     elong  mag " sig PA
---- --------  ------------   ------------  ------ ------ -----  --- --------
2024 09 08 06  01 07 48.849   -13 03 27.19  .09862 1.0935 149.4 21.3 1.06 162
2024 09 08 07  01 08 09.131   -13 03 50.87  .09859 1.0935 149.4 21.3 1.07 162
2024 09 08 08  01 08 29.419   -13 04 14.44  .09856 1.0934 149.3 21.3 1.08 161
2024 09 08 09  01 08 49.711   -13 04 37.90  .09853 1.0933 149.3 21.3 1.09 160
2024 09 08 10  01 09 10.009   -13 05 01.24  .09850 1.0932 149.2 21.3 1.10 160
2024 09 08 11  01 09 30.312   -13 05 24.48  .09848 1.0931 149.2 21.3 1.11 159
2024 09 08 12  01 09 50.620   -13 05 47.60  .09845 1.0931 149.1 21.3 1.12 159
2024 09 08 13  01 10 10.932   -13 06 10.61  .09842 1.0930 149.1 21.3 1.13 158
2024 09 08 14  01 10 31.250   -13 06 33.51  .09839 1.0929 149.0 21.3 1.14 157
2024 09 08 15  01 10 51.571   -13 06 56.29  .09837 1.0928 149.0 21.3 1.15 157
2024 09 08 16  01 11 11.898   -13 07 18.96  .09834 1.0928 148.9 21.3 1.16 156
2024 09 08 17  01 11 32.228   -13 07 41.52  .09831 1.0927 148.9 21.3 1.18 156
2024 09 08 18  01 11 52.563   -13 08 03.97  .09829 1.0926 148.8 21.3 1.19 155
2024 09 08 19  01 12 12.902   -13 08 26.30  .09826 1.0925 148.8 21.3 1.20 154
2024 09 08 20  01 12 33.245   -13 08 48.51  .09823 1.0925 148.7 21.3 1.21 154
2024 09 08 21  01 12 53.592   -13 09 10.61  .09821 1.0924 148.7 21.4 1.23 153
2024 09 08 22  01 13 13.943   -13 09 32.60  .09818 1.0923 148.6 21.4 1.24 153
2024 09 08 23  01 13 34.297   -13 09 54.47  .09816 1.0922 148.6 21.4 1.26 152
2024 09 09 00  01 13 54.655   -13 10 16.22  .09813 1.0922 148.5 21.4 1.27 152
2024 09 09 01  01 14 15.016   -13 10 37.86  .09811 1.0921 148.5 21.4 1.28 151
2024 09 09 02  01 14 35.381   -13 10 59.38  .09808 1.0920 148.4 21.4 1.30 150
2024 09 09 03  01 14 55.749   -13 11 20.78  .09806 1.0919 148.4 21.4 1.31 150
2024 09 09 04  01 15 16.120   -13 11 42.07  .09803 1.0919 148.3 21.4 1.33 149
2024 09 09 05  01 15 36.493   -13 12 03.24  .09801 1.0918 148.3 21.4 1.34 149
2024 09 09 06  01 15 56.870   -13 12 24.29  .09799 1.0917 148.2 21.4 1.36 148
2024 09 09 07  01 16 17.250   -13 12 45.23  .09796 1.0916 148.2 21.4 1.37 148
2024 09 09 08  01 16 37.632   -13 13 06.04  .09794 1.0916 148.1 21.4 1.39 147
2024 09 09 09  01 16 58.016   -13 13 26.74  .09792 1.0915 148.1 21.4 1.41 147
2024 09 09 10  01 17 18.403   -13 13 47.32  .09790 1.0914 148.0 21.4 1.42 146
2024 09 09 11  01 17 38.792   -13 14 07.78  .09787 1.0913 148.0 21.4 1.44 146
2024 09 09 12  01 17 59.184   -13 14 28.12  .09785 1.0913 147.9 21.4 1.46 146
2024 09 09 13  01 18 19.577   -13 14 48.33  .09783 1.0912 147.9 21.4 1.48 145
2024 09 09 14  01 18 39.973   -13 15 08.43  .09781 1.0911 147.8 21.4 1.49 145
2024 09 09 15  01 19 00.370   -13 15 28.41  .09779 1.0911 147.8 21.4 1.51 144
2024 09 09 16  01 19 20.769   -13 15 48.27  .09777 1.0910 147.7 21.4 1.53 144
2024 09 09 17  01 19 41.169   -13 16 08.01  .09775 1.0909 147.7 21.4 1.55 143
2024 09 09 18  01 20 01.571   -13 16 27.63  .09773 1.0908 147.6 21.4 1.57 143
2024 09 09 19  01 20 21.974   -13 16 47.12  .09771 1.0908 147.6 21.4 1.58 143
2024 09 09 20  01 20 42.379   -13 17 06.50  .09769 1.0907 147.5 21.4 1.60 142
2024 09 09 21  01 21 02.784   -13 17 25.75  .09767 1.0906 147.5 21.4 1.62 142
2024 09 09 22  01 21 23.191   -13 17 44.88  .09765 1.0906 147.4 21.4 1.64 141
2024 09 09 23  01 21 43.598   -13 18 03.88  .09763 1.0905 147.4 21.4 1.66 141
2024 09 10 00  01 22 04.006   -13 18 22.77  .09761 1.0904 147.3 21.4 1.68 141
2024 09 10 01  01 22 24.415   -13 18 41.53  .09759 1.0903 147.2 21.4 1.70 140
2024 09 10 02  01 22 44.824   -13 19 00.17  .09757 1.0903 147.2 21.4 1.72 140
2024 09 10 03  01 23 05.234   -13 19 18.69  .09756 1.0902 147.1 21.4 1.74 140
2024 09 10 04  01 23 25.644   -13 19 37.08  .09754 1.0901 147.1 21.4 1.76 139
2024 09 10 05  01 23 46.054   -13 19 55.34  .09752 1.0901 147.0 21.4 1.78 139